This is the latest recevied weather packets stored in our database for station/object KG5WBN. If no packets are shown the sender has not sent any weather packets the latest 10 day(s).
| Time | Temp. | Humidity | Pressure | Rain* | Wind** | Luminosity | Snow |
|---|---|---|---|---|---|---|---|
| 1787753707 | 30.56° C | 61% | 1015.2 hPa | 0 mm | - | 128 W/m² | - |
| 1787753407 | 30.56° C | 61% | 1015.2 hPa | 0 mm | - | 121 W/m² | - |
| 1787753100 | 30° C | 61% | 1015.2 hPa | 0 mm | - | 113 W/m² | - |
| 1787752800 | 30° C | 69% | 1015.2 hPa | 0 mm | - | 103 W/m² | - |
| 1787752500 | 29.44° C | 69% | 1015.2 hPa | 0 mm | - | 97 W/m² | - |
| 1787752195 | 28.89° C | 72% | 1015.2 hPa | 0 mm | - | 71 W/m² | - |
| 1787751894 | 28.89° C | 74% | 1015.6 hPa | 0 mm | - | 71 W/m² | - |
| 1787751590 | 28.33° C | 76% | 1015.2 hPa | 0 mm | - | 68 W/m² | - |
| 1787751290 | 27.78° C | 80% | 1015.2 hPa | 0 mm | - | 60 W/m² | - |
| 1787750986 | 27.78° C | 82% | 1015.2 hPa | 0 mm | - | 57 W/m² | - |
| 1787750681 | 27.22° C | 85% | 1015.2 hPa | 0 mm | - | 54 W/m² | - |
| 1787750381 | 27.22° C | 86% | 1015.6 hPa | 0 mm | - | 53 W/m² | - |
| 1787750081 | 26.67° C | 90% | 1015.6 hPa | 0 mm | - | 50 W/m² | - |
| 1787749778 | 26.67° C | 92% | 1015.6 hPa | 0 mm | - | 46 W/m² | - |
| 1787749473 | 26.11° C | 97% | 1015.9 hPa | 0 mm | - | 42 W/m² | - |
| 1787749173 | 26.11° C | 98% | 1015.9 hPa | 0 mm | - | 42 W/m² | - |
| 1787748873 | 25.56° C | 99% | 1015.6 hPa | 0 mm | - | 38 W/m² | - |
| 1787748567 | 25.56° C | 99% | 1015.6 hPa | 0 mm | - | 37 W/m² | - |
| 1787748263 | 25° C | 99% | 1015.9 hPa | 0 mm | - | 35 W/m² | - |
| 1787747959 | 25° C | 99% | 1015.6 hPa | 0 mm | - | 31 W/m² | - |
| 1787747659 | 25° C | 99% | 1015.6 hPa | 0 mm | - | 28 W/m² | - |
| 1787747354 | 25° C | 99% | 1015.9 hPa | 0 mm | - | 26 W/m² | - |
| 1787747049 | 24.44° C | 99% | 1015.6 hPa | 0 mm | - | 23 W/m² | - |
| 1787746745 | 24.44° C | 99% | 1015.2 hPa | 0 mm | - | 20 W/m² | - |
| 1787746443 | 24.44° C | 99% | 1015.6 hPa | 0 mm | - | 17 W/m² | - |
* Rain latest hour (hover to see other rain measurements)
** Current wind speed in m/s (hover to see current wind gust speed)